Location: ???????
(55.9569°N, 38.6553°E)
Time: 04:10:05
(UTC+00:00)

Daily predictions for brighter satellites

Satellite Brightness Start Highest point End
(mag) Time Altitude Azimuth Time Altitude Azimuth Time Altitude Azimuth
Cosmos 2333 4.3 00:01:30 10° NW 00:07:09 64° WSW 00:12:50 10° SSE
SJ 16-02 1.8 00:04:06 10° S 00:08:20 59° ESE 00:12:37 10° NNE
Cosmos 1315 Rocket 3.7 00:04:48 10° SW 00:08:24 35° WNW 00:12:03 10° N
Cosmos 2181 Rocket 4.1 00:04:20 10° NNW 00:10:44 71° W 00:16:59 10° S
Cosmos 1850 Rocket 4.1 00:06:37 10° SSW 00:11:55 77° WNW 00:17:13 10° NNE
Cosmos 1709 Rocket 4.3 00:05:59 10° SSW 00:12:15 63° WNW 00:18:38 10° N
SL-16 R/B 2.6 00:06:50 10° S 00:13:03 65° WSW 00:19:20 10° NNW
